sat.trackr.live / text

‹ back to catalog

STARLINK-11668 [DTC]

NORAD 63557 · 2025-075K

PAYLOAD ACTIVE UNKNOWN

§ Identity

Operator
Country
US
Launch date
2025-04-13
Launch site
AFETR
Launch vehicle
Mass (kg)
RCS (m²)

Purposes: comms

External: N2YO · Heavens-Above · Gunter

§ Orbital elements

Epoch: 2026-09-20T18:05:07.864800Z

Period
91.65 min
Inclination
42.9995°
Eccentricity
0.0000530
Mean motion
15.71252473 rev/d
Perigee alt
355.0 km
Apogee alt
355.7 km
Semi-major
6,733.5 km
B*
1.5489e-3
RAAN
58.3290°
Arg perigee
230.9326°
Mean anomaly
129.1494°
Rev number
8,392

§ Raw data

STARLINK-11668 [DTC]1 63557U 25075K   26263.75356325  .00206883  00000+0  15489-2 0  99952 63557  42.9995  58.3290 0000530 230.9326 129.1494 15.71252473 83925

JSON: /api/v1/satellites/63557 · /tle

For live sub-satellite position, see the globe view (requires WebGL).

§ Visibility from observer

Set your observer location to see the next 7 days of passes ≥ 10°. The values pass through the URL so the page stays shareable.

No JS? Fill the form by hand. The geolocation button needs JavaScript.